Regional Weather Roundup
Issued by NWS

Home | Current Version | Previous Version | Text Only | Print | Product List | Glossary On
Versions: 1 2 3 4 5 6 7 8 9 10 11 12 13 14 15 16 17 18 19 20 21 22 23 24 25 26 27 28 29 30 31 32 33 34 35 36 37 38 39 40 41 42 43 44 45 46 47 48 49 50
000
ASUS45 KABQ 022210
RWRNM
NEW MEXICO REGIONAL WEATHER ROUNDUP
NATIONAL WEATHER SERVICE ALBUQUERQUE NM
400 PM MDT WED SEP 02 2015

NOTE: "FAIR" MEANS FEW OR NO CLOUDS BELOW 12,000 FEET AGL WITH NO
       SIGNIFICANT WEATHER OR OBSTRUCTIONS TO VISION.

      THIS PRODUCT IS RELEASED AS TWO VERSIONS.  ONE VERSION NEAR
      THE TOP OF THE HOUR CONTAINING PRELIMINARY DATA FROM ALBUQUERQUE
      AND OTHER STATIONS.  A FINAL VERSION WITH ADDITIONAL DATA IS
      ISSUED ABOUT 10 MINUTES AFTER THE HOUR.

NMZ501-503-504-510>518-022300-
NORTHWEST PLATEAU/NORTHCENTRAL MOUNTAINS

CITY           SKY/WX    TMP DP  RH WIND       PRES   REMARKS
FARMINGTON     MOSUNNY   78  49  35 SW10      30.13F
LOS ALAMOS     PTSUNNY   74  42  32 W5        30.26F
SANTA FE       PTSUNNY   85  42  22 W3        30.17F
TAOS           PTSUNNY   81  37  21 SW17      30.23F
ANGEL FIRE     FAIR      73  43  33 W18G24    30.32F

$$
NMZ402-403-502-505>509-022300-
WESTCENTRAL MOUNTAINS/SOUTHWEST MOUNTAINS

CITY           SKY/WX    TMP DP  RH WIND       PRES   REMARKS
GALLUP         PTSUNNY   80  41  24 SW8       30.20F
GRANTS         CLOUDY    73  48  40 NW10      30.23F
SILVER CITY    RAIN      73  55  53 NW15G21   30.16S

$$
NMZ407-409-411-412-022300-
SOUTHERN DESERTS

CITY           SKY/WX    TMP DP  RH WIND       PRES   REMARKS
LORDSBURG      FAIR      81  57  44 W13       30.06F
DEMING         PTSUNNY   91  48  22 SW12      30.03F
LAS CRUCES     PTSUNNY   89  45  21 SW18G28   30.05F
HOLLOMAN AFB   MOSUNNY   95  43  16 N9        29.98F
ALAMOGORDO     MOSUNNY   95  39  14 W10       30.01F
T OR C         PTSUNNY   88  45  22 NW14      30.06F

$$
NMZ519>523-022300-
CENTRAL VALLEYS/CENTRAL HIGHLANDS

CITY           SKY/WX    TMP DP  RH WIND       PRES   REMARKS
ALBUQUERQUE    PTSUNNY   88  45  22 S6        30.10F
DOUBLE EAGLE   PTSUNNY   88  45  22 W5        30.14F
MORIARTY ARPT  MOCLDY    85  37  18 SW13      30.17F
CLINES CORNERS MOSUNNY   80  42  25 W14G22    30.22F
BELEN          FAIR      86  46  24 SE5       30.09F
SOCORRO        FAIR      88  45  22 W22       30.07F

$$
NMZ524>526-539-540-022300-
SOUTHCENTRAL MOUNTAINS

CITY           SKY/WX    TMP DP  RH WIND       PRES   REMARKS
RUIDOSO        PTSUNNY  N/A N/A N/A MISG      30.23F

$$
NMZ527>531-022300-
NORTHEAST HIGHLANDS/NORTHEAST PLAINS

CITY           SKY/WX    TMP DP  RH WIND       PRES   REMARKS
LAS VEGAS      LGT RAIN  75  49  39 E6        30.19F
RATON          PTSUNNY   75  48  38 NE20G25   30.13S
CLAYTON        MOSUNNY   91  52  26 SW13      30.03F

$$
NMZ532>537-022300-
EASTCENTRAL PLAINS

CITY           SKY/WX    TMP DP  RH WIND       PRES   REMARKS
TUCUMCARI      SUNNY     97  47  18 W9        29.96F
CANNON AFB     MOSUNNY   93  47  20 SW17G23   30.02F
CLOVIS AIRPORT PTSUNNY   91  50  24 S21G26    30.04F

$$
NMZ028-029-538-022300-
SOUTHEAST PLAINS

CITY           SKY/WX    TMP DP  RH WIND       PRES   REMARKS
ROSWELL        SUNNY     97  42  15 S15       29.98F
ARTESIA        MOSUNNY   97  46  17 SE17G26   29.99F
CARLSBAD       MOSUNNY   97  42  15 SE9G21    29.97F
HOBBS          SUNNY     91  50  24 SE9G20    30.04F


$$



USA.gov is the U.S. government's official web portal to all federal, state and local government web resources and services.